Terminal Aerodrome Forecast
Issued by NWS Atlanta, GA

Home | Current Version | Previous Version | Text Only | Print | Product List | Glossary On
Versions: 1 2 3 4 5 6 7 8 9 10 11 12 13 14 15 16 17 18 19 20 21 22 23 24 25 26 27 28 29 30 31 32 33 34 35 36 37 38 39 40 41 42 43 44
000
FTUS42 KFFC 012138 AAB
TAFATL
TAF AMD
KATL 012138Z 0122/0224 26009KT P6SM FEW014 SCT035 BKN080
      TEMPO 0122/0201 VRB20G40KT 4SM TSRA SCT014 BKN030CB
     FM020100 28006KT P6SM BKN100
     FM020800 26005KT P6SM BKN015 BKN050
     FM021400 27008KT P6SM BKN050
     FM021600 25008KT P6SM VCSH BKN050 PROB30 0216/0220 6SM TSRA
      BKN035CB=

USA.gov is the U.S. government's official web portal to all federal, state and local government web resources and services.